| time (UTC) | temp F | wind direction | speed MPH | gust MPH | rain 1hr in | rain 24hr in | rain mn in | humidity % | barometer mb |
| 20260507120636 | 76 | 0 | 2.0 | 5.0 | 0.00 | 0.00 | 0.00 | 94 | 1013.7 |
| 20260507120117 | 76 | 355 | 2.0 | 5.0 | 0.00 | 0.00 | 0.00 | 94 | 1013.6 |
| 20260507115620 | 76 | 12 | 2.0 | 4.0 | 0.00 | 0.00 | 0.00 | 94 | 1013.6 |
| 20260507115116 | 76 | 4 | 2.0 | 6.0 | 0.00 | 0.00 | 0.00 | 95 | 1013.6 |
| 20260507114834 | 76 | 355 | 2.0 | 6.0 | 0.00 | 0.00 | 0.00 | 94 | 1013.7 |
| 20260507114333 | 76 | 334 | 1.0 | 4.0 | 0.00 | 0.00 | 0.00 | 95 | 1013.7 |
| 20260507113612 | 76 | 330 | 2.0 | 4.0 | 0.00 | 0.00 | 0.00 | 95 | 1013.8 |
| 20260507113114 | 75 | 6 | 1.0 | 4.0 | 0.00 | 0.00 | 0.00 | 95 | 1013.7 |
| 20260507112609 | 75 | 355 | 1.0 | 4.0 | 0.00 | 0.00 | 0.00 | 96 | 1013.9 |
| 20260507112107 | 75 | 355 | 1.0 | 4.0 | 0.00 | 0.00 | 0.00 | 96 | 1013.9 |
| 20260507111606 | 75 | 340 | 1.0 | 7.0 | 0.00 | 0.00 | 0.00 | 96 | 1013.8 |
| 20260507111106 | 75 | 343 | 1.0 | 7.0 | 0.00 | 0.00 | 0.00 | 96 | 1013.9 |
| 20260507110605 | 75 | 341 | 1.0 | 5.0 | 0.00 | 0.00 | 0.00 | 97 | 1013.7 |
| 20260507110108 | 75 | 341 | 2.0 | 5.0 | 0.00 | 0.00 | 0.00 | 97 | 1013.7 |
| 20260507105539 | 75 | 350 | 2.0 | 3.0 | 0.00 | 0.00 | 0.00 | 97 | 1013.6 |
| 20260507105026 | 75 | 308 | 1.0 | 3.0 | 0.00 | 0.00 | 0.00 | 97 | 1013.6 |
| 20260507104446 | 75 | 331 | 0.0 | 1.0 | 0.00 | 0.00 | 0.00 | 97 | 1013.6 |
| 20260507103919 | 74 | 331 | 1.0 | 3.0 | 0.00 | 0.00 | 0.00 | 98 | 1013.7 |
| 20260507103353 | 74 | 331 | 2.0 | 3.0 | 0.00 | 0.00 | 0.00 | 98 | 1013.6 |
| 20260507102829 | 74 | 337 | 1.0 | 3.0 | 0.00 | 0.00 | 0.00 | 98 | 1013.5 |
| 20260507102306 | 74 | 337 | 0.0 | 3.0 | 0.00 | 0.00 | 0.00 | 99 | 1013.5 |
| 20260507101737 | 74 | 337 | 1.0 | 4.0 | 0.00 | 0.00 | 0.00 | 99 | 1013.6 |
| 20260507101432 | 74 | 336 | 1.0 | 4.0 | 0.00 | 0.00 | 0.00 | 99 | 1013.5 |
| 20260507100712 | 74 | 333 | 2.0 | 7.0 | 0.00 | 0.00 | 0.00 | 99 | 1013.5 |
| 20260507100214 | 74 | 339 | 1.0 | 7.0 | 0.00 | 0.00 | 0.00 | 100 | 1013.6 |
| 20260507095714 | 74 | 81 | 0.0 | 3.0 | 0.00 | 0.00 | 0.00 | 100 | 1013.5 |
| 20260507095213 | 74 | 83 | 0.0 | 3.0 | 0.00 | 0.00 | 0.00 | 100 | 1013.5 |
| 20260507094713 | 74 | 18 | 0.0 | 3.0 | 0.00 | 0.00 | 0.00 | 100 | 1013.6 |
| 20260507094212 | 74 | 18 | 0.0 | 2.0 | 0.00 | 0.00 | 0.00 | 100 | 1013.5 |
| 20260507093710 | 74 | 18 | 0.0 | 0.0 | 0.00 | 0.00 | 0.00 | 100 | 1013.5 |
| 20260507093210 | 74 | 18 | 0.0 | 0.0 | 0.00 | 0.00 | 0.00 | 100 | 1013.5 |
| 20260507092709 | 74 | 18 | 0.0 | 3.0 | 0.00 | 0.00 | 0.00 | 100 | 1013.5 |
| 20260507092202 | 74 | 18 | 0.0 | 3.0 | 0.00 | 0.00 | 0.00 | 100 | 1013.5 |
| 20260507091923 | 74 | 22 | 0.0 | 1.0 | 0.00 | 0.00 | 0.00 | 100 | 1013.4 |
| 20260507091204 | 74 | 22 | 0.0 | 0.0 | 0.00 | 0.00 | 0.00 | 100 | 1013.5 |
| 20260507090659 | 74 | 22 | 0.0 | 0.0 | 0.00 | 0.00 | 0.00 | 100 | 1013.4 |
| 20260507090201 | 74 | 22 | 0.0 | 2.0 | 0.00 | 0.00 | 0.00 | 100 | 1013.3 |
| 20260507085658 | 74 | 22 | 0.0 | 2.0 | 0.00 | 0.00 | 0.00 | 100 | 1013.3 |
| 20260507085153 | 74 | 0 | 0.0 | 0.0 | 0.00 | 0.00 | 0.00 | 100 | 1013.3 |
| 20260507084652 | 74 | 0 | 0.0 | 0.0 | 0.00 | 0.00 | 0.00 | 100 | 1013.3 |
| 20260507084148 | 74 | 0 | 0.0 | 0.0 | 0.00 | 0.00 | 0.00 | 100 | 1013.2 |
| 20260507083650 | 74 | 0 | 0.0 | 0.0 | 0.00 | 0.00 | 0.00 | 100 | 1013.1 |
| 20260507083145 | 74 | 0 | 0.0 | 0.0 | 0.00 | 0.00 | 0.00 | 100 | 1013.1 |
| 20260507082646 | 74 | 0 | 0.0 | 0.0 | 0.00 | 0.00 | 0.00 | 100 | 1013.1 |
| 20260507082411 | 74 | 0 | 0.0 | 0.0 | 0.00 | 0.00 | 0.00 | 100 | 1013.1 |
| 20260507081645 | 74 | 0 | 0.0 | 0.0 | 0.00 | 0.00 | 0.00 | 100 | 1013.1 |
| 20260507081145 | 74 | 0 | 0.0 | 0.0 | 0.00 | 0.00 | 0.00 | 100 | 1013.0 |
| 20260507080901 | 74 | 0 | 0.0 | 0.0 | 0.00 | 0.00 | 0.00 | 100 | 1012.9 |
| 20260507080140 | 74 | 0 | 0.0 | 0.0 | 0.00 | 0.00 | 0.00 | 100 | 1012.9 |
| 20260507075642 | 74 | 0 | 0.0 | 0.0 | 0.00 | 0.00 | 0.00 | 100 | 1012.9 |
| 20260507075142 | 74 | 0 | 0.0 | 0.0 | 0.00 | 0.00 | 0.00 | 100 | 1012.9 |
| 20260507074637 | 74 | 0 | 0.0 | 0.0 | 0.00 | 0.00 | 0.00 | 100 | 1013.0 |
| 20260507074137 | 74 | 0 | 0.0 | 0.0 | 0.00 | 0.00 | 0.00 | 100 | 1013.1 |
| 20260507073640 | 74 | 0 | 0.0 | 0.0 | 0.00 | 0.00 | 0.00 | 100 | 1013.1 |
| 20260507073358 | 74 | 0 | 0.0 | 0.0 | 0.00 | 0.00 | 0.00 | 100 | 1013.2 |
| 20260507072851 | 74 | 0 | 0.0 | 0.0 | 0.00 | 0.00 | 0.00 | 100 | 1013.3 |
| 20260507072127 | 74 | 0 | 0.0 | 0.0 | 0.00 | 0.00 | 0.00 | 100 | 1013.3 |
| 20260507071629 | 74 | 0 | 0.0 | 0.0 | 0.00 | 0.00 | 0.00 | 100 | 1013.3 |
| 20260507071330 | 74 | 0 | 0.0 | 0.0 | 0.00 | 0.00 | 0.00 | 100 | 1013.3 |
| 20260507070609 | 74 | 0 | 0.0 | 0.0 | 0.00 | 0.00 | 0.00 | 100 | 1013.4 |
| 20260507070059 | 74 | 0 | 0.0 | 0.0 | 0.00 | 0.00 | 0.00 | 100 | 1013.4 |
| 20260507065559 | 74 | 0 | 0.0 | 0.0 | 0.00 | 0.00 | 0.00 | 100 | 1013.5 |
| 20260507065308 | 74 | 0 | 0.0 | 0.0 | 0.00 | 0.00 | 0.00 | 100 | 1013.6 |
| 20260507065148 | 74 | 0 | 0.0 | 0.0 | 0.00 | 0.00 | 0.00 | 100 | 1013.5 |
| 20260507064317 | 74 | 0 | 0.0 | 0.0 | 0.00 | 0.00 | 0.00 | 100 | 1013.6 |
| 20260507063550 | 74 | 0 | 0.0 | 0.0 | 0.00 | 0.00 | 0.00 | 100 | 1013.7 |
| 20260507063308 | 74 | 0 | 0.0 | 0.0 | 0.00 | 0.00 | 0.00 | 100 | 1013.8 |
| 20260507062546 | 74 | 0 | 0.0 | 0.0 | 0.00 | 0.00 | 0.00 | 100 | 1013.8 |
| 20260507062041 | 74 | 0 | 0.0 | 1.0 | 0.00 | 0.00 | 0.00 | 99 | 1014.0 |
| 20260507061541 | 74 | 0 | 0.0 | 1.0 | 0.00 | 0.00 | 0.00 | 99 | 1014.0 |
| 20260507061040 | 74 | 0 | 0.0 | 3.0 | 0.00 | 0.00 | 0.00 | 99 | 1014.1 |
| 20260507060536 | 74 | 0 | 0.0 | 3.0 | 0.00 | 0.00 | 0.00 | 99 | 1014.1 |
| 20260507060035 | 75 | 6 | 0.0 | 2.0 | 0.00 | 0.00 | 0.00 | 99 | 1014.1 |
| 20260507055759 | 75 | 6 | 0.0 | 1.0 | 0.00 | 0.00 | 0.00 | 99 | 1014.1 |
| 20260507055033 | 75 | 6 | 0.0 | 1.0 | 0.00 | 0.00 | 0.00 | 99 | 1014.4 |
| 20260507054506 | 75 | 6 | 0.0 | 1.0 | 0.00 | 0.00 | 0.00 | 99 | 1014.4 |
| 20260507053940 | 75 | 6 | 0.0 | 3.0 | 0.00 | 0.00 | 0.00 | 99 | 1014.3 |
| 20260507053437 | 75 | 6 | 0.0 | 3.0 | 0.00 | 0.00 | 0.00 | 99 | 1014.5 |
| 20260507052919 | 75 | 6 | 0.0 | 1.0 | 0.00 | 0.00 | 0.00 | 99 | 1014.6 |
| 20260507052421 | 75 | 6 | 0.0 | 0.0 | 0.00 | 0.00 | 0.00 | 99 | 1014.5 |
| 20260507051910 | 75 | 6 | 0.0 | 0.0 | 0.00 | 0.00 | 0.00 | 99 | 1014.7 |
| 20260507051624 | 75 | 6 | 1.0 | 2.0 | 0.00 | 0.00 | 0.00 | 98 | 1014.7 |
| 20260507051507 | 75 | 6 | 0.0 | 2.0 | 0.00 | 0.00 | 0.00 | 99 | 1014.7 |
| 20260507051149 | 75 | 6 | 1.0 | 2.0 | 0.00 | 0.00 | 0.00 | 98 | 1014.7 |
| 20260507050405 | 75 | 6 | 1.0 | 3.0 | 0.00 | 0.00 | 0.00 | 98 | 1014.7 |
| 20260507045902 | 75 | 6 | 0.0 | 3.0 | 0.00 | 0.00 | 0.00 | 98 | 1014.8 |
| 20260507045400 | 75 | 6 | 1.0 | 3.0 | 0.00 | 0.00 | 0.00 | 98 | 1015.0 |
| 20260507044900 | 75 | 6 | 1.0 | 3.0 | 0.00 | 0.00 | 0.00 | 98 | 1015.0 |
| 20260507044401 | 75 | 0 | 0.0 | 3.0 | 0.00 | 0.00 | 0.00 | 98 | 1015.1 |
| 20260507044125 | 75 | 350 | 0.0 | 2.0 | 0.00 | 0.00 | 0.00 | 98 | 1015.2 |
| 20260507043355 | 75 | 350 | 1.0 | 2.0 | 0.00 | 0.00 | 0.00 | 98 | 1015.1 |
| 20260507042851 | 75 | 350 | 1.0 | 6.0 | 0.00 | 0.00 | 0.00 | 98 | 1015.2 |
| 20260507042354 | 75 | 350 | 1.0 | 6.0 | 0.00 | 0.00 | 0.00 | 98 | 1015.2 |
| 20260507041839 | 75 | 0 | 0.0 | 2.0 | 0.00 | 0.00 | 0.00 | 98 | 1015.3 |
| 20260507041340 | 75 | 0 | 0.0 | 2.0 | 0.00 | 0.00 | 0.00 | 98 | 1015.2 |
| 20260507041306 | 75 | 0 | 0.0 | 3.0 | 0.00 | 0.00 | 0.00 | 98 | 1015.3 |
| 20260507040933 | 75 | 0 | 0.0 | 1.0 | 0.00 | 0.00 | 0.00 | 98 | 1015.3 |
| 20260507035834 | 75 | 0 | 1.0 | 4.0 | 0.00 | 0.00 | 0.00 | 98 | 1015.3 |
| 20260507035334 | 75 | 0 | 0.0 | 4.0 | 0.00 | 0.00 | 0.00 | 98 | 1015.4 |
| 20260507034832 | 75 | 0 | 0.0 | 2.0 | 0.00 | 0.00 | 0.00 | 98 | 1015.4 |
| 20260507034332 | 75 | 0 | 0.0 | 3.0 | 0.00 | 0.00 | 0.00 | 98 | 1015.3 |
| 20260507033826 | 75 | 0 | 0.0 | 3.0 | 0.00 | 0.00 | 0.00 | 98 | 1015.5 |
| 20260507033327 | 75 | 0 | 0.0 | 2.0 | 0.00 | 0.00 | 0.00 | 98 | 1015.5 |
| 20260507032824 | 75 | 0 | 0.0 | 2.0 | 0.00 | 0.00 | 0.00 | 98 | 1015.6 |
| 20260507032330 | 75 | 0 | 0.0 | 4.0 | 0.00 | 0.00 | 0.00 | 98 | 1015.6 |
| 20260507031801 | 75 | 0 | 1.0 | 4.0 | 0.00 | 0.00 | 0.00 | 98 | 1015.7 |
| 20260507031233 | 75 | 0 | 1.0 | 4.0 | 0.00 | 0.00 | 0.00 | 98 | 1015.7 |
| 20260507030728 | 75 | 0 | 1.0 | 4.0 | 0.00 | 0.00 | 0.00 | 98 | 1015.8 |
| 20260507030225 | 75 | 46 | 0.0 | 3.0 | 0.00 | 0.00 | 0.00 | 98 | 1015.8 |
| 20260507025728 | 75 | 50 | 0.0 | 3.0 | 0.00 | 0.00 | 0.00 | 98 | 1015.8 |
| 20260507025223 | 75 | 50 | 0.0 | 2.0 | 0.00 | 0.00 | 0.00 | 98 | 1015.8 |
| 20260507024722 | 75 | 46 | 0.0 | 2.0 | 0.00 | 0.00 | 0.00 | 98 | 1015.9 |
| 20260507024219 | 75 | 46 | 0.0 | 1.0 | 0.00 | 0.00 | 0.00 | 98 | 1015.9 |
| 20260507023942 | 75 | 46 | 0.0 | 0.0 | 0.00 | 0.00 | 0.00 | 98 | 1015.9 |
| 20260507023216 | 75 | 46 | 0.0 | 0.0 | 0.00 | 0.00 | 0.00 | 98 | 1016.0 |
| 20260507022713 | 75 | 46 | 0.0 | 0.0 | 0.00 | 0.00 | 0.00 | 98 | 1016.0 |
| 20260507022212 | 75 | 46 | 0.0 | 1.0 | 0.00 | 0.00 | 0.00 | 98 | 1016.1 |
| 20260507021710 | 75 | 46 | 0.0 | 1.0 | 0.00 | 0.00 | 0.00 | 98 | 1016.1 |
| 20260507021210 | 75 | 46 | 0.0 | 0.0 | 0.00 | 0.00 | 0.00 | 97 | 1016.1 |
| 20260507020708 | 75 | 46 | 0.0 | 0.0 | 0.00 | 0.00 | 0.00 | 97 | 1016.1 |
| 20260507020205 | 75 | 46 | 0.0 | 0.0 | 0.00 | 0.00 | 0.00 | 97 | 1016.1 |
| 20260507015701 | 75 | 46 | 0.0 | 2.0 | 0.00 | 0.00 | 0.00 | 97 | 1016.1 |
| 20260507015202 | 75 | 46 | 0.0 | 2.0 | 0.00 | 0.00 | 0.00 | 97 | 1016.2 |
| 20260507014655 | 75 | 46 | 0.0 | 2.0 | 0.00 | 0.00 | 0.00 | 97 | 1016.2 |
| 20260507014411 | 75 | 46 | 0.0 | 2.0 | 0.00 | 0.00 | 0.00 | 97 | 1016.3 |
| 20260507013649 | 75 | 43 | 0.0 | 2.0 | 0.00 | 0.00 | 0.00 | 97 | 1016.3 |
| 20260507013634 | 75 | 43 | 0.0 | 2.0 | 0.00 | 0.00 | 0.00 | 97 | 1016.2 |
| 20260507012910 | 75 | 43 | 0.0 | 2.0 | 0.00 | 0.00 | 0.00 | 97 | 1016.3 |
| 20260507012144 | 75 | 43 | 0.0 | 2.0 | 0.00 | 0.00 | 0.00 | 97 | 1016.3 |
| 20260507011643 | 75 | 43 | 0.0 | 2.0 | 0.00 | 0.00 | 0.00 | 97 | 1016.2 |
| 20260507011146 | 75 | 43 | 0.0 | 4.0 | 0.00 | 0.00 | 0.00 | 97 | 1016.4 |
| 20260507010638 | 75 | 43 | 0.0 | 4.0 | 0.00 | 0.00 | 0.00 | 97 | 1016.4 |
| 20260507010413 | 75 | 23 | 0.0 | 2.0 | 0.00 | 0.00 | 0.00 | 97 | 1016.4 |
| 20260507005650 | 75 | 23 | 0.0 | 2.0 | 0.00 | 0.00 | 0.00 | 97 | 1016.3 |
| 20260507005410 | 75 | 23 | 0.0 | 3.0 | 0.00 | 0.00 | 0.00 | 96 | 1016.4 |
| 20260507004631 | 75 | 23 | 0.0 | 3.0 | 0.00 | 0.00 | 0.00 | 96 | 1016.4 |
| 20260507004111 | 75 | 0 | 0.0 | 0.0 | 0.00 | 0.00 | 0.00 | 96 | 1016.6 |
| 20260507003546 | 75 | 0 | 0.0 | 0.0 | 0.00 | 0.00 | 0.00 | 96 | 1016.5 |
| 20260507003036 | 75 | 0 | 0.0 | 0.0 | 0.00 | 0.00 | 0.00 | 96 | 1016.5 |
| 20260507002530 | 75 | 0 | 0.0 | 2.0 | 0.00 | 0.00 | 0.00 | 96 | 1016.6 |
| 20260507002351 | 75 | 0 | 1.0 | 3.0 | 0.00 | 0.00 | 0.00 | 96 | 1016.7 |
| 20260507002322 | 75 | 0 | 1.0 | 3.0 | 0.00 | 0.00 | 0.00 | 96 | 1016.8 |
| 20260507001024 | 75 | 0 | 1.0 | 3.0 | 0.00 | 0.00 | 0.00 | 96 | 1016.7 |
| 20260507000521 | 75 | 0 | 1.0 | 3.0 | 0.00 | 0.00 | 0.00 | 96 | 1016.7 |
| 20260507000018 | 75 | 350 | 0.0 | 2.0 | 0.00 | 0.00 | 0.00 | 96 | 1016.8 |
| 20260506235517 | 75 | 350 | 0.0 | 2.0 | 0.00 | 0.00 | 0.00 | 96 | 1016.8 |
| 20260506235019 | 75 | 350 | 0.0 | 3.0 | 0.00 | 0.00 | 0.00 | 96 | 1016.9 |
| 20260506234518 | 75 | 350 | 0.0 | 3.0 | 0.00 | 0.00 | 0.00 | 96 | 1016.9 |
| 20260506234016 | 75 | 345 | 0.0 | 2.0 | 0.00 | 0.00 | 0.00 | 96 | 1016.8 |
| 20260506233520 | 75 | 345 | 0.0 | 1.0 | 0.00 | 0.00 | 0.00 | 96 | 1016.7 |
| 20260506232954 | 75 | 345 | 0.0 | 3.0 | 0.00 | 0.00 | 0.00 | 96 | 1016.7 |
| 20260506232427 | 75 | 345 | 0.0 | 3.0 | 0.00 | 0.00 | 0.00 | 96 | 1016.7 |
| 20260506231859 | 75 | 12 | 0.0 | 2.0 | 0.00 | 0.00 | 0.00 | 96 | 1016.6 |
| 20260506231332 | 75 | 12 | 1.0 | 3.0 | 0.00 | 0.00 | 0.00 | 96 | 1016.6 |
| 20260506230806 | 75 | 12 | 1.0 | 3.0 | 0.00 | 0.00 | 0.00 | 97 | 1016.5 |
| 20260506230239 | 75 | 13 | 1.0 | 3.0 | 0.00 | 0.00 | 0.00 | 96 | 1016.6 |
| 20260506225939 | 75 | 13 | 1.0 | 3.0 | 0.00 | 0.00 | 0.00 | 97 | 1016.5 |
| 20260506225143 | 75 | 10 | 0.0 | 2.0 | 0.00 | 0.00 | 0.00 | 97 | 1016.5 |
| 20260506224618 | 75 | 29 | 0.0 | 3.0 | 0.00 | 0.00 | 0.00 | 97 | 1016.5 |
| 20260506224049 | 75 | 29 | 1.0 | 4.0 | 0.00 | 0.00 | 0.00 | 97 | 1016.5 |
| 20260506223523 | 75 | 22 | 1.0 | 4.0 | 0.00 | 0.00 | 0.00 | 96 | 1016.4 |
| 20260506223011 | 75 | 6 | 2.0 | 5.0 | 0.00 | 0.00 | 0.00 | 97 | 1016.5 |
| 20260506222509 | 75 | 8 | 2.0 | 5.0 | 0.00 | 0.00 | 0.00 | 96 | 1016.5 |
| 20260506222011 | 75 | 355 | 2.0 | 4.0 | 0.00 | 0.00 | 0.00 | 96 | 1016.4 |
| 20260506221509 | 75 | 0 | 1.0 | 3.0 | 0.00 | 0.00 | 0.00 | 97 | 1016.4 |
| 20260506221011 | 75 | 355 | 1.0 | 4.0 | 0.00 | 0.00 | 0.00 | 97 | 1016.3 |
| 20260506220515 | 75 | 350 | 2.0 | 4.0 | 0.00 | 0.00 | 0.00 | 96 | 1016.2 |
| 20260506220012 | 75 | 327 | 1.0 | 3.0 | 0.00 | 0.00 | 0.00 | 97 | 1016.2 |
| 20260506215509 | 75 | 337 | 0.0 | 2.0 | 0.00 | 0.00 | 0.00 | 97 | 1016.2 |
| 20260506215009 | 75 | 337 | 1.0 | 3.0 | 0.00 | 0.00 | 0.00 | 97 | 1016.1 |
| 20260506214740 | 75 | 337 | 1.0 | 3.0 | 0.00 | 0.00 | 0.00 | 97 | 1016.0 |
| 20260506214235 | 75 | 335 | 0.0 | 2.0 | 0.00 | 0.00 | 0.00 | 97 | 1016.1 |
| 20260506213510 | 75 | 335 | 0.0 | 2.0 | 0.00 | 0.00 | 0.00 | 97 | 1016.2 |
| 20260506213007 | 75 | 335 | 0.0 | 3.0 | 0.00 | 0.00 | 0.00 | 97 | 1016.2 |
| 20260506212510 | 75 | 335 | 0.0 | 3.0 | 0.00 | 0.00 | 0.00 | 97 | 1016.1 |
| 20260506212004 | 75 | 335 | 1.0 | 3.0 | 0.00 | 0.00 | 0.00 | 97 | 1016.0 |
| 20260506211506 | 75 | 335 | 1.0 | 3.0 | 0.00 | 0.00 | 0.00 | 97 | 1016.1 |
| 20260506211006 | 75 | 334 | 1.0 | 5.0 | 0.00 | 0.00 | 0.00 | 97 | 1016.1 |
| 20260506210506 | 75 | 0 | 1.0 | 5.0 | 0.00 | 0.00 | 0.00 | 96 | 1016.1 |
| 20260506210007 | 76 | 350 | 1.0 | 4.0 | 0.00 | 0.00 | 0.00 | 96 | 1016.1 |
| 20260506205507 | 76 | 350 | 1.0 | 4.0 | 0.00 | 0.00 | 0.00 | 97 | 1016.0 |
| 20260506205005 | 76 | 350 | 1.0 | 4.0 | 0.00 | 0.00 | 0.00 | 96 | 1016.0 |
| 20260506204509 | 76 | 350 | 1.0 | 4.0 | 0.00 | 0.00 | 0.00 | 96 | 1015.8 |
| 20260506204006 | 76 | 350 | 1.0 | 3.0 | 0.00 | 0.00 | 0.00 | 96 | 1015.8 |
| 20260506203507 | 76 | 350 | 1.0 | 3.0 | 0.00 | 0.00 | 0.00 | 96 | 1015.7 |
| 20260506203005 | 76 | 350 | 1.0 | 3.0 | 0.00 | 0.00 | 0.00 | 96 | 1015.6 |
| 20260506202506 | 76 | 350 | 1.0 | 4.0 | 0.00 | 0.00 | 0.00 | 95 | 1015.6 |
| 20260506202007 | 76 | 350 | 1.0 | 4.0 | 0.00 | 0.00 | 0.00 | 95 | 1015.6 |
| 20260506201509 | 76 | 350 | 1.0 | 3.0 | 0.00 | 0.00 | 0.00 | 95 | 1015.6 |
| 20260506200959 | 77 | 350 | 1.0 | 3.0 | 0.00 | 0.00 | 0.00 | 95 | 1015.8 |
| 20260506200500 | 77 | 350 | 1.0 | 4.0 | 0.00 | 0.00 | 0.00 | 95 | 1015.7 |
| 20260506195959 | 77 | 350 | 1.0 | 4.0 | 0.00 | 0.00 | 0.00 | 95 | 1015.7 |
| 20260506195455 | 77 | 350 | 1.0 | 4.0 | 0.00 | 0.00 | 0.00 | 95 | 1015.7 |
| 20260506194957 | 76 | 350 | 1.0 | 4.0 | 0.00 | 0.00 | 0.00 | 95 | 1015.8 |
| 20260506194457 | 76 | 350 | 1.0 | 5.0 | 0.00 | 0.00 | 0.00 | 95 | 1015.9 |
| 20260506193951 | 76 | 350 | 1.0 | 5.0 | 0.00 | 0.00 | 0.00 | 95 | 1015.8 |
| 20260506193450 | 76 | 345 | 2.0 | 5.0 | 0.00 | 0.00 | 0.00 | 95 | 1015.8 |
| 20260506192945 | 76 | 328 | 2.0 | 5.0 | 0.00 | 0.00 | 0.00 | 95 | 1015.9 |
| 20260506192445 | 76 | 339 | 3.0 | 6.0 | 0.00 | 0.00 | 0.00 | 95 | 1015.9 |
| 20260506191947 | 76 | 343 | 2.0 | 6.0 | 0.00 | 0.00 | 0.00 | 95 | 1015.9 |
| 20260506191445 | 77 | 10 | 2.0 | 5.0 | 0.00 | 0.00 | 0.00 | 95 | 1015.9 |
| 20260506190943 | 77 | 6 | 2.0 | 5.0 | 0.00 | 0.00 | 0.00 | 95 | 1015.9 |
| 20260506190654 | 77 | 350 | 2.0 | 5.0 | 0.00 | 0.00 | 0.00 | 95 | 1016.0 |
| 20260506190157 | 77 | 355 | 1.0 | 3.0 | 0.00 | 0.00 | 0.00 | 95 | 1016.0 |
| 20260506185428 | 77 | 355 | 1.0 | 4.0 | 0.00 | 0.00 | 0.00 | 95 | 1016.1 |
| 20260506184927 | 77 | 355 | 2.0 | 4.0 | 0.00 | 0.00 | 0.00 | 95 | 1016.1 |
| 20260506184426 | 77 | 342 | 2.0 | 6.0 | 0.00 | 0.00 | 0.00 | 95 | 1016.2 |
| 20260506183918 | 77 | 0 | 2.0 | 6.0 | 0.00 | 0.00 | 0.00 | 95 | 1016.1 |
| 20260506183418 | 77 | 10 | 2.0 | 5.0 | 0.00 | 0.00 | 0.00 | 95 | 1016.1 |
| 20260506182919 | 77 | 355 | 2.0 | 5.0 | 0.00 | 0.00 | 0.00 | 95 | 1016.2 |
| 20260506182641 | 77 | 350 | 3.0 | 5.0 | 0.00 | 0.00 | 0.00 | 94 | 1016.3 |
| 20260506181916 | 77 | 355 | 2.0 | 5.0 | 0.00 | 0.00 | 0.00 | 94 | 1016.3 |
| 20260506181645 | 77 | 350 | 2.0 | 5.0 | 0.00 | 0.00 | 0.00 | 95 | 1016.2 |
| 20260506180913 | 77 | 6 | 2.0 | 5.0 | 0.00 | 0.00 | 0.00 | 95 | 1016.4 |
| 20260506180412 | 77 | 328 | 2.0 | 5.0 | 0.00 | 0.00 | 0.00 | 95 | 1016.4 |
| 20260506175910 | 77 | 355 | 2.0 | 5.0 | 0.00 | 0.00 | 0.00 | 95 | 1016.4 |
| 20260506175412 | 77 | 337 | 2.0 | 5.0 | 0.00 | 0.00 | 0.00 | 95 | 1016.4 |
| 20260506174850 | 77 | 0 | 2.0 | 6.0 | 0.00 | 0.00 | 0.00 | 95 | 1016.5 |
| 20260506174346 | 77 | 333 | 2.0 | 6.0 | 0.00 | 0.00 | 0.00 | 95 | 1016.5 |
| 20260506173849 | 77 | 350 | 1.0 | 6.0 | 0.00 | 0.00 | 0.00 | 95 | 1016.6 |
| 20260506173345 | 77 | 350 | 2.0 | 6.0 | 0.00 | 0.00 | 0.00 | 95 | 1016.6 |
| 20260506172844 | 76 | 340 | 3.0 | 6.0 | 0.00 | 0.00 | 0.00 | 95 | 1016.6 |
| 20260506172339 | 77 | 355 | 3.0 | 6.0 | 0.00 | 0.00 | 0.00 | 95 | 1016.7 |
| 20260506171836 | 77 | 355 | 3.0 | 8.0 | 0.00 | 0.00 | 0.00 | 95 | 1016.7 |
| 20260506171335 | 77 | 350 | 4.0 | 8.0 | 0.00 | 0.00 | 0.00 | 95 | 1016.7 |
| 20260506170831 | 77 | 355 | 4.0 | 12.0 | 0.00 | 0.00 | 0.00 | 95 | 1016.8 |
| 20260506170334 | 77 | 341 | 4.0 | 12.0 | 0.00 | 0.00 | 0.00 | 94 | 1016.8 |
| 20260506170048 | 77 | 341 | 4.0 | 8.0 | 0.00 | 0.00 | 0.00 | 94 | 1016.9 |
| 20260506165326 | 77 | 350 | 3.0 | 7.0 | 0.00 | 0.00 | 0.00 | 94 | 1017.0 |
| 20260506164826 | 77 | 5 | 3.0 | 9.0 | 0.00 | 0.00 | 0.00 | 94 | 1017.1 |
| 20260506164328 | 77 | 350 | 3.0 | 8.0 | 0.00 | 0.00 | 0.00 | 94 | 1017.2 |
| 20260506163800 | 77 | 350 | 4.0 | 10.0 | 0.00 | 0.00 | 0.00 | 93 | 1017.2 |
| 20260506163231 | 78 | 0 | 3.0 | 9.0 | 0.00 | 0.00 | 0.00 | 93 | 1017.3 |
| 20260506162704 | 78 | 320 | 3.0 | 8.0 | 0.00 | 0.00 | 0.00 | 92 | 1017.4 |
| 20260506162137 | 78 | 355 | 4.0 | 8.0 | 0.00 | 0.00 | 0.00 | 92 | 1017.4 |
| 20260506161610 | 78 | 313 | 3.0 | 8.0 | 0.00 | 0.00 | 0.00 | 91 | 1017.5 |
| 20260506161041 | 79 | 328 | 3.0 | 6.0 | 0.00 | 0.00 | 0.00 | 92 | 1017.6 |
| 20260506160515 | 78 | 355 | 2.0 | 6.0 | 0.00 | 0.00 | 0.00 | 92 | 1017.7 |
| 20260506155947 | 78 | 0 | 3.0 | 8.0 | 0.00 | 0.00 | 0.00 | 92 | 1017.8 |
| 20260506155423 | 78 | 15 | 4.0 | 8.0 | 0.00 | 0.00 | 0.00 | 93 | 1017.9 |
| 20260506154859 | 78 | 0 | 3.0 | 8.0 | 0.00 | 0.00 | 0.00 | 91 | 1018.0 |
| 20260506154333 | 78 | 333 | 3.0 | 6.0 | 0.00 | 0.00 | 0.00 | 91 | 1018.0 |
| 20260506153804 | 78 | 13 | 4.0 | 6.0 | 0.00 | 0.00 | 0.00 | 91 | 1018.1 |
| 20260506153240 | 78 | 334 | 4.0 | 10.0 | 0.00 | 0.00 | 0.00 | 91 | 1018.2 |
| 20260506152724 | 78 | 0 | 5.0 | 10.0 | 0.00 | 0.00 | 0.00 | 91 | 1018.3 |
| 20260506152420 | 78 | 344 | 5.0 | 9.0 | 0.00 | 0.00 | 0.00 | 90 | 1018.2 |
| 20260506151629 | 79 | 350 | 4.0 | 9.0 | 0.00 | 0.00 | 0.00 | 90 | 1018.3 |
| 20260506151339 | 79 | 341 | 3.0 | 9.0 | 0.00 | 0.00 | 0.00 | 89 | 1018.3 |
| 20260506151103 | 79 | 355 | 3.0 | 6.0 | 0.00 | 0.00 | 0.00 | 90 | 1018.4 |
| 20260506150120 | 79 | 329 | 3.0 | 6.0 | 0.00 | 0.00 | 0.00 | 89 | 1018.6 |
| 20260506145828 | 79 | 350 | 3.0 | 6.0 | 0.00 | 0.00 | 0.00 | 89 | 1018.7 |
| 20260506145027 | 79 | 0 | 2.0 | 5.0 | 0.00 | 0.00 | 0.00 | 90 | 1018.7 |
| 20260506144503 | 79 | 340 | 2.0 | 5.0 | 0.00 | 0.00 | 0.00 | 90 | 1018.7 |
| 20260506143935 | 78 | 350 | 3.0 | 5.0 | 0.00 | 0.00 | 0.00 | 90 | 1018.9 |
| 20260506143422 | 78 | 5 | 2.0 | 5.0 | 0.00 | 0.00 | 0.00 | 90 | 1019.0 |
| 20260506142921 | 78 | 350 | 2.0 | 4.0 | 0.00 | 0.00 | 0.00 | 91 | 1019.2 |
| 20260506142423 | 78 | 10 | 2.0 | 5.0 | 0.00 | 0.00 | 0.00 | 91 | 1019.3 |
| 20260506141922 | 78 | 7 | 2.0 | 5.0 | 0.00 | 0.00 | 0.00 | 92 | 1019.3 |
| 20260506141424 | 77 | 355 | 2.0 | 5.0 | 0.00 | 0.00 | 0.00 | 92 | 1019.5 |
| 20260506140922 | 78 | 355 | 2.0 | 5.0 | 0.00 | 0.00 | 0.00 | 91 | 1019.4 |
| 20260506140640 | 77 | 337 | 2.0 | 4.0 | 0.00 | 0.00 | 0.00 | 91 | 1019.4 |
| 20260506135919 | 77 | 12 | 2.0 | 4.0 | 0.00 | 0.00 | 0.00 | 92 | 1019.6 |
| 20260506135417 | 77 | 355 | 1.0 | 4.0 | 0.00 | 0.00 | 0.00 | 92 | 1019.6 |
| 20260506134918 | 77 | 0 | 1.0 | 4.0 | 0.00 | 0.00 | 0.00 | 93 | 1019.6 |
| 20260506134420 | 76 | 77 | 1.0 | 4.0 | 0.00 | 0.00 | 0.00 | 92 | 1019.6 |
| 20260506133922 | 76 | 39 | 2.0 | 4.0 | 0.00 | 0.00 | 0.00 | 93 | 1019.7 |
| 20260506133404 | 76 | 16 | 1.0 | 4.0 | 0.00 | 0.00 | 0.00 | 93 | 1019.8 |
| 20260506132902 | 76 | 70 | 1.0 | 4.0 | 0.00 | 0.00 | 0.00 | 94 | 1019.9 |
| 20260506132333 | 75 | 204 | 1.0 | 4.0 | 0.00 | 0.00 | 0.00 | 96 | 1019.9 |
| 20260506131830 | 74 | 58 | 1.0 | 4.0 | 0.00 | 0.00 | 0.00 | 97 | 1020.0 |
| 20260506131332 | 74 | 85 | 1.0 | 4.0 | 0.00 | 0.00 | 0.00 | 98 | 1020.0 |
| 20260506130833 | 73 | 145 | 1.0 | 4.0 | 0.00 | 0.00 | 0.00 | 98 | 1020.0 |
| 20260506130550 | 73 | 53 | 1.0 | 4.0 | 0.00 | 0.00 | 0.00 | 100 | 1020.0 |
| 20260506125828 | 72 | 213 | 1.0 | 3.0 | 0.00 | 0.00 | 0.00 | 100 | 1020.1 |
| 20260506125328 | 72 | 35 | 1.0 | 4.0 | 0.00 | 0.00 | 0.00 | 100 | 1020.1 |
| 20260506124827 | 71 | 19 | 1.0 | 4.0 | 0.00 | 0.00 | 0.00 | 100 | 1020.1 |
| 20260506124554 | 71 | 13 | 1.0 | 2.0 | 0.00 | 0.00 | 0.00 | 100 | 1020.1 |
| 20260506124055 | 71 | 14 | 1.0 | 2.0 | 0.00 | 0.00 | 0.00 | 100 | 1020.0 |
| 20260506123328 | 71 | 42 | 1.0 | 5.0 | 0.00 | 0.00 | 0.00 | 100 | 1020.1 |
| 20260506122830 | 71 | 41 | 1.0 | 5.0 | 0.00 | 0.00 | 0.00 | 100 | 1020.1 |
| 20260506122308 | 71 | 55 | 1.0 | 5.0 | 0.00 | 0.00 | 0.00 | 100 | 1020.0 |
| 20260506121810 | 70 | 52 | 2.0 | 4.0 | 0.00 | 0.00 | 0.00 | 100 | 1019.9 |
| 20260506121530 | 70 | 43 | 2.0 | 5.0 | 0.00 | 0.00 | 0.00 | 100 | 1019.9 |